DW6619 Weather Reports


Display with metric or nautical units.
time (UTC)temp
F
wind
direction
speed
MPH
gust
MPH
rain 1hr
in
rain 24hr
in
rain mn
in
humidity
%
barometer
mb
20260504050010 44 236 0.0 0.0 0.00 0.00 0.00 76 1015.7
20260504044527 43 236 0.0 0.0 0.00 0.00 0.00 75 1015.6
20260504043025 43 236 0.0 0.0 0.00 0.00 0.00 74 1015.7
20260504041519 43 236 0.0 0.0 0.00 0.00 0.00 72 1015.4
20260504040028 43 236 0.0 0.0 0.00 0.00 0.00 71 1015.3
20260504034522 43 236 0.0 0.0 0.00 0.00 0.00 70 1015.5
20260504033021 43 236 0.0 0.0 0.00 0.00 0.00 69 1015.6
20260504031521 44 236 0.0 0.0 0.00 0.00 0.00 68 1015.4
20260504030017 45 236 0.0 0.0 0.00 0.00 0.00 66 1015.4
20260504024510 45 236 0.0 0.0 0.00 0.00 0.00 65 1015.4
20260504023031 46 236 0.0 0.0 0.00 0.00 0.00 63 1015.3
20260504021532 47 236 0.0 0.0 0.00 0.00 0.00 62 1015.3
20260504020040 47 236 0.0 0.0 0.00 0.00 0.00 62 1015.1
20260504014518 48 236 0.0 0.0 0.00 0.00 0.00 60 1015.0
20260504013014 49 236 0.0 0.0 0.00 0.00 0.00 56 1014.8
20260504011512 50 236 0.0 0.0 0.00 0.00 0.00 53 1014.6
20260504010016 51 236 0.0 0.0 0.00 0.00 0.00 49 1014.6
20260504004509 52 236 0.0 0.0 0.00 0.00 0.00 47 1014.5
20260504003031 54 236 0.0 0.0 0.00 0.00 0.00 45 1014.4
20260504001523 56 236 0.0 0.0 0.00 0.00 0.00 41 1014.4
20260504000021 58 236 0.0 0.0 0.00 0.00 0.00 39 1014.2
20260503234545 59 236 0.0 0.0 0.00 0.00 0.00 35 1014.1
20260503233015 60 211 0.0 0.0 0.00 0.00 0.00 34 1014.1
20260503231514 61 36 0.0 0.0 0.00 0.00 0.00 34 1013.9
20260503230028 61 274 0.0 0.0 0.00 0.00 0.00 32 1013.8
20260503224524 62 210 0.0 0.0 0.00 0.00 0.00 31 1013.9
20260503223024 63 227 0.0 5.0 0.00 0.00 0.00 31 1013.9
20260503221519 65 188 0.0 0.0 0.00 0.00 0.00 31 1013.9
20260503220011 67 17 0.0 0.0 0.00 0.00 0.00 29 1014.1
20260503214537 67 188 0.0 0.0 0.00 0.00 0.00 29 1013.9
20260503213035 68 275 0.0 1.0 0.00 0.00 0.00 27 1014.1
20260503211517 68 186 0.0 0.0 0.00 0.00 0.00 29 1014.2
20260503210034 67 69 0.0 0.0 0.00 0.00 0.00 31 1014.1
20260503204534 67 275 0.0 0.0 0.00 0.00 0.00 32 1014.3
20260503203028 66 93 0.0 0.0 0.00 0.00 0.00 31 1014.3
20260503201522 66 205 1.0 6.0 0.00 0.00 0.00 31 1014.4
20260503200031 66 194 0.0 3.0 0.00 0.00 0.00 35 1014.6
20260503194519 66 222 0.0 5.0 0.00 0.00 0.00 34 1015.0
20260503193047 66 44 0.0 0.0 0.00 0.00 0.00 34 1015.1
20260503191528 65 208 0.0 0.0 0.00 0.00 0.00 36 1015.4
20260503190011 64 198 0.0 4.0 0.00 0.00 0.00 43 1015.6
20260503184530 63 30 0.0 0.0 0.00 0.00 0.00 34 1015.7
20260503183010 62 264 0.0 3.0 0.00 0.00 0.00 36 1015.9
20260503181526 62 32 0.0 7.0 0.00 0.00 0.00 40 1016.1
20260503180043 60 53 0.0 1.0 0.00 0.00 0.00 41 1016.2
20260503174520 59 130 0.0 0.0 0.00 0.00 0.00 43 1016.4
20260503173013 60 187 0.0 8.0 0.00 0.00 0.00 42 1016.4
20260503171510 59 143 0.0 1.0 0.00 0.00 0.00 43 1016.7
20260503081519 40 101 0.0 0.0 0.00 0.00 0.00 75 1015.0
20260503071534 41 67 0.0 0.0 0.00 0.00 0.00 73 1014.5